Regional Weather Roundup
Issued by NWS

Home | Current Version | Previous Version | Graphics & Text | Print | Product List | Glossary On
Versions: 1 2 3 4 5 6 7 8 9 10 11 12 13 14 15 16 17 18 19 20 21 22 23 24 25 26 27
000
ASUS45 KCYS 270510
RWRWY

WYOMING REGIONAL WEATHER ROUNDUP
NATIONAL WEATHER SERVICE CHEYENNE WY
1100 PM MDT FRI AUG 26 2016

NOTE:  "FAIR" INDICATES FEW OR NO CLOUDS BELOW 12,000 FEET
WITH NO SIGNIFICANT WEATHER AND/OR OBSTRUCTIONS TO VISIBILITY.

WYZ001-270600-
YELLOWSTONE NATIONAL PARK

CITY           SKY/WX    TMP DP  RH WIND       PRES   REMARKS
LK YELLOWSTONE   N/A     42  32  67 NW3       30.20S
W YELLOWSTONE  NOT AVBL

$$
WYZ002>013-054>058-071-098>099-270600-
NORTHERN WYOMING

CITY           SKY/WX    TMP DP  RH WIND       PRES   REMARKS
JACKSON        FAIR      46  19  34 CALM      30.12S
CODY           MOCLDY    54  43  66 S6        30.06S
GREYBULL       FAIR      57  39  51 W5        30.00R
WORLAND        FAIR      55  43  63 S6        30.01S
SHERIDAN       FAIR      55  45  68 CALM      30.02F
BUFFALO        FAIR      56  39  53 SE7       30.09S
GILLETTE       FAIR      53  47  79 SE8       30.05F
HULETT         FAIR      52  50  93 S8        30.07F
NEWCASTLE      FAIR      57  46  67 SE13      30.06S

$$
WYZ014>020-022>026-101>103-270600-
CENTRAL WYOMING

CITY           SKY/WX    TMP DP  RH WIND       PRES   REMARKS
BIG PINEY      FAIR      44  35  70 N10       30.18S
PINEDALE       FAIR      41  32  70 NW10      30.19S
DUBOIS         FAIR      45  28  53 W6        30.16S
LANDER         FAIR      59  41  51 MISG      30.06R
RIVERTON       FAIR      56  40  55 NE7       30.06F
CASPER         FAIR      49  47  93 W5        30.08S
DOUGLAS        FAIR      53  48  83 S10       30.08S

$$
WYZ021-027>030-104>119-270600-
SOUTHERN WYOMING

CITY           SKY/WX    TMP DP  RH WIND       PRES   REMARKS
EVANSTON       FAIR      52  19  27 SW12      30.19R
FORT BRIDGER   FAIR      58  19  22 SW13      30.20R
ROCK SPRINGS   FAIR      56  33  42 S5        30.16R
DIXON          FAIR      52  37  56 CALM      30.24R
RAWLINS        FAIR      54  35  48 CALM      30.18F
SARATOGA       FAIR      46  34  61 E9        30.21F
LARAMIE        MOCLDY    56  36  47 W10G20    30.21R
CHEYENNE       MOCLDY    54  47  77 SW10      30.18R
TORRINGTON     MOCLDY    58  56  93 NE10      30.07R
PINE BLUFFS    FAIR      52  52 100 SW5       30.14F

$$




USA.gov is the U.S. government's official web portal to all federal, state and local government web resources and services.